Zurück zum Katalog

DFH-1

AktivKommunikationLEO
NORAD 4382·PAYLOAD·🇨🇳 China

Gestartet Apr 24, 1970 von Jiuquan Satellite Launch Center

Loading…

Nächste Überflüge (nächste 24 Stunden)

TLE

AktuellSource: Space-Track

Epoche: Sep 14, 2026, 12:28 UTC

1 04382U 70034A   26257.51971188  .00000227  00000-0  43768-4 0  9996
2 04382  68.4261 239.4868 1032142 259.7708  88.5571 13.14637015657426

Verfolge DFH-1 in Echtzeit mit AllMySat

Download on the App Store